Location: *
(37.5724°S, 58.0067°E)
Time: 11:15:25
(UTC+00:00)

Cosmos 1766 - Pass Details

Date: 26 September 2020
Orbit: 521 x 544 km, 82.5° (Epoch: 29 October)

Event Time Altitude Azimuth Distance (km) Brightness Sun altitude
Rises 14:35:36 0° 186° (S) 2,690 7.0 -6.2°
Reaches altitude 10° 14:37:46 10° 184° (S) 1,793 6.1 -6.7°
Maximum altitude 14:41:42 77° 97° (E) 549 3.2 -7.4°
Drops below altitude 10° 14:45:35 10° 10° (N) 1,771 5.7 -8.2°
Sets 14:47:43 0° 9° (N) 2,653 6.6 -8.6°
